Somerset, KY

4:59 AM EST on February 25, 2018 (GMT -0500)
Somerset-Pulaski County-Wilson

Weather History for KSME - March, 2013

Change the Weather History Date:

Monday, March 11, 2013

  Actual Average Record
Temperature  
Mean Temperature 52 °F -  
Max Temperature 62 °F 55 °F 75 °F (2006)
Min Temperature 41 °F 32 °F 17 °F (1998)
Degree Days  
Heating Degree Days 14    
Growing Degree Days 2 (Base 50)    
Moisture  
Dew Point 43 °F    
Average Humidity 72    
Maximum Humidity 100    
Minimum Humidity 30    
Precipitation  
Precipitation 0.72 in - - ()
Sea Level Pressure  
Sea Level Pressure 29.84 in    
Wind  
Wind Speed 13 mph (SW)    
Max Wind Speed 22 mph    
Max Gust Speed 37 mph    
Visibility 9 miles    
Events Rain    
Averages and records for this station are not official NWS values.
T = Trace of Precipitation, MM = Missing Value Source: NWS Daily Summary

Daily Weather History Graph

Daily Weather History Graph

Search for Another Location

Airport or City:

Trip Planner

Search our weather history database for the weather conditions in past years. The results will help you decide how hot, cold, wet, or windy it might be!

Date:

Astronomy

Mar. 11, 2013 Rise Set
Actual Time 7:54 AM EDT 7:42 PM EDT
Civil Twilight 7:29 AM EDT 8:08 PM EDT
Nautical Twilight 6:58 AM EDT 8:38 PM EDT
Astronomical Twilight 6:28 AM EDT 9:08 PM EDT
Moon 7:28 AM EDT (3/11) 7:52 PM EDT (3/11)
Length of Visible Light 12h 39m
Length of Day
11h 47m
Waning Crescent, 0% of the Moon is Illuminated
Mar 11
Waning Crescent
Mar 11
New
Mar 19
First Quarter
Mar 27
Full
Apr 3
Last Quarter

Hourly Weather History & Observations

Time (EDT) Temp. Windchill Dew Point Humidity Pressure Visibility Wind Dir Wind Speed Gust Speed Precip Events Conditions
12:15 AM 62.6 °F - 30.2 °F 30% 29.91 in 10.0 mi South 12.7 mph 19.6 mph N/A   Clear
12:35 AM 62.6 °F - 30.2 °F 30% 29.90 in 10.0 mi South 12.7 mph 25.3 mph N/A   Clear
1:15 AM 62.6 °F - 32.0 °F 32% 29.89 in 10.0 mi SSW 20.7 mph 26.5 mph N/A   Mostly Cloudy
1:35 AM 62.6 °F - 32.0 °F 32% 29.89 in 10.0 mi SSW 12.7 mph 27.6 mph N/A   Scattered Clouds
1:55 AM 62.6 °F - 33.8 °F 34% 29.87 in 10.0 mi South 13.8 mph 19.6 mph N/A   Mostly Cloudy
2:15 AM 62.6 °F - 35.6 °F 37% 29.88 in 10.0 mi SSW 17.3 mph 24.2 mph N/A   Overcast
2:55 AM 62.6 °F - 37.4 °F 39% 29.87 in 10.0 mi SSW 11.5 mph 25.3 mph N/A   Scattered Clouds
3:15 AM 62.6 °F - 37.4 °F 39% 29.86 in 10.0 mi SSW 13.8 mph 23.0 mph N/A   Clear
3:35 AM 62.6 °F - 39.2 °F 42% 29.85 in 10.0 mi South 11.5 mph 18.4 mph N/A   Mostly Cloudy
3:55 AM 62.6 °F - 41.0 °F 45% 29.84 in 10.0 mi SSW 18.4 mph 25.3 mph N/A   Scattered Clouds
4:15 AM 62.6 °F - 41.0 °F 45% 29.83 in 10.0 mi South 21.9 mph 35.7 mph N/A   Clear
4:35 AM 62.6 °F - 41.0 °F 45% 29.84 in 10.0 mi SSW 19.6 mph 36.8 mph N/A   Clear
4:55 AM 62.6 °F - 42.8 °F 48% 29.83 in 10.0 mi South 17.3 mph 32.2 mph N/A   Clear
5:15 AM 62.6 °F - 42.8 °F 48% 29.83 in 10.0 mi SSW 16.1 mph 31.1 mph N/A   Clear
5:35 AM 60.8 °F - 42.8 °F 52% 29.83 in 10.0 mi SSW 12.7 mph 25.3 mph N/A   Scattered Clouds
5:55 AM 60.8 °F - 44.6 °F 55% 29.83 in 10.0 mi SSW 16.1 mph 27.6 mph N/A   Scattered Clouds
6:15 AM 60.8 °F - 44.6 °F 55% 29.82 in 10.0 mi SSW 16.1 mph 31.1 mph N/A   Scattered Clouds
6:35 AM 60.8 °F - 44.6 °F 55% 29.82 in 10.0 mi SSW 18.4 mph 24.2 mph N/A   Scattered Clouds
6:55 AM 60.8 °F - 44.6 °F 55% 29.83 in 10.0 mi SSW 10.4 mph 23.0 mph N/A   Scattered Clouds
7:15 AM 60.8 °F - 44.6 °F 55% 29.85 in 10.0 mi SW 18.4 mph 25.3 mph N/A   Mostly Cloudy
7:35 AM 60.8 °F - 46.4 °F 59% 29.85 in 10.0 mi SSW 11.5 mph 24.2 mph N/A   Overcast
7:55 AM 60.8 °F - 46.4 °F 59% 29.85 in 10.0 mi SSW 12.7 mph 25.3 mph N/A   Overcast
8:15 AM 60.8 °F - 46.4 °F 59% 29.84 in 10.0 mi South 15.0 mph 21.9 mph N/A   Overcast
8:35 AM 60.8 °F - 46.4 °F 59% 29.83 in 10.0 mi SSW 11.5 mph 21.9 mph N/A   Overcast
8:55 AM 59.0 °F - 46.4 °F 63% 29.83 in 10.0 mi SSW 15.0 mph 25.3 mph N/A Rain Rain
9:15 AM 55.4 °F - 50.0 °F 82% 29.81 in 10.0 mi South 8.1 mph 17.3 mph 0.01 in Rain Light Rain
9:35 AM 57.2 °F - 48.2 °F 72% 29.79 in 10.0 mi SSW 4.6 mph - 0.01 in   Overcast
9:55 AM 59.0 °F - 46.4 °F 63% 29.79 in 10.0 mi SSW 9.2 mph - 0.01 in Rain Light Rain
10:15 AM 57.2 °F - 50.0 °F 77% 29.85 in 7.0 mi WSW 15.0 mph - 0.04 in Rain Heavy Rain
10:35 AM 53.6 °F - 51.8 °F 94% 29.85 in 4.0 mi SW 9.2 mph 17.3 mph 0.13 in Rain Rain
10:55 AM 53.6 °F - 51.8 °F 94% 29.85 in 4.0 mi WSW 6.9 mph - 0.21 in Rain Rain
11:15 AM 53.6 °F - 51.8 °F 94% 29.85 in 3.0 mi SW 6.9 mph - 0.09 in Rain Heavy Rain
11:35 AM 53.6 °F - 51.8 °F 94% 29.83 in 2.5 mi Calm Calm - 0.19 in Rain Heavy Rain
11:55 AM 53.6 °F - 53.6 °F 100% 29.83 in 3.0 mi South 3.5 mph - 0.25 in Rain Rain
12:15 PM 53.6 °F - 53.6 °F 100% 29.84 in 5.0 mi South 9.2 mph - 0.03 in Rain Rain
12:35 PM 53.6 °F - 53.6 °F 100% 29.80 in 7.0 mi SSE 8.1 mph - 0.06 in Rain Light Rain
12:55 PM 55.4 °F - 51.8 °F 88% 29.77 in 10.0 mi South 19.6 mph 26.5 mph 0.07 in Rain Light Rain
1:15 PM 55.4 °F - 51.8 °F 88% 29.77 in 10.0 mi South 18.4 mph 25.3 mph 0.01 in Rain Light Rain
1:35 PM 55.4 °F - 51.8 °F 88% 29.77 in 10.0 mi South 15.0 mph 23.0 mph 0.02 in Rain Rain
1:55 PM 55.4 °F - 51.8 °F 88% 29.77 in 10.0 mi South 15.0 mph 19.6 mph 0.04 in Rain Light Rain
2:15 PM 55.4 °F - 53.6 °F 94% 29.78 in 10.0 mi SSW 12.7 mph 24.2 mph 0.01 in Rain Light Rain
2:35 PM 55.4 °F - 53.6 °F 94% 29.77 in 7.0 mi SSW 11.5 mph 17.3 mph 0.04 in Rain Rain
2:55 PM 55.4 °F - 51.8 °F 88% 29.75 in 10.0 mi South 9.2 mph - 0.06 in Rain Light Rain
3:15 PM 55.4 °F - 51.8 °F 88% 29.73 in 10.0 mi SSW 11.5 mph - 0.01 in Rain Rain
3:35 PM 53.6 °F - 51.8 °F 94% 29.72 in 10.0 mi South 8.1 mph - 0.03 in Rain Light Rain
3:55 PM 53.6 °F - 51.8 °F 94% 29.73 in 7.0 mi SSW 10.4 mph - 0.06 in Rain Light Rain
4:15 PM 53.6 °F - 50.0 °F 88% 29.73 in 10.0 mi SSW 8.1 mph - N/A   Overcast
4:35 PM 50.0 °F - 46.4 °F 87% 29.77 in 10.0 mi West 15.0 mph 20.7 mph N/A Rain Light Rain
4:55 PM 48.2 °F - 46.4 °F 93% 29.78 in 7.0 mi West 13.8 mph 23.0 mph 0.01 in   Light Drizzle
5:15 PM 46.4 °F 40.7 °F 44.6 °F 93% 29.78 in 4.0 mi West 12.7 mph 21.9 mph 0.01 in Rain Rain
5:35 PM 46.4 °F 40.4 °F 46.4 °F 100% 29.79 in 4.0 mi West 13.8 mph 19.6 mph 0.01 in   Light Drizzle
5:55 PM 46.4 °F 40.1 °F 44.6 °F 93% 29.80 in 5.0 mi West 15.0 mph 21.9 mph 0.01 in   Overcast
6:15 PM 46.4 °F 40.7 °F 44.6 °F 93% 29.82 in 2.5 mi WNW 12.7 mph 18.4 mph N/A   Drizzle
6:35 PM 44.6 °F 39.2 °F 42.8 °F 93% 29.83 in 10.0 mi WNW 10.4 mph - N/A   Overcast
6:55 PM 44.6 °F 39.2 °F 42.8 °F 93% 29.83 in 10.0 mi West 10.4 mph - N/A   Overcast
7:15 PM 44.6 °F 38.8 °F 42.8 °F 93% 29.85 in 10.0 mi West 11.5 mph 16.1 mph N/A   Overcast
7:35 PM 44.6 °F 39.2 °F 41.0 °F 87% 29.85 in 10.0 mi West 10.4 mph - N/A   Overcast
7:55 PM 42.8 °F 34.8 °F 39.2 °F 87% 29.86 in 10.0 mi West 17.3 mph 23.0 mph N/A   Overcast
8:15 PM 42.8 °F 35.1 °F 37.4 °F 81% 29.88 in 10.0 mi WNW 16.1 mph 19.6 mph N/A   Overcast
8:35 PM 41.0 °F 34.7 °F 33.8 °F 76% 29.88 in 10.0 mi West 10.4 mph - N/A   Overcast
8:55 PM 41.0 °F 37.1 °F 35.6 °F 81% 29.90 in 10.0 mi WNW 5.8 mph - N/A   Overcast
9:15 PM 41.0 °F 36.4 °F 33.8 °F 76% 29.90 in 10.0 mi WNW 6.9 mph - N/A   Overcast
9:35 PM 41.0 °F 35.2 °F 33.8 °F 76% 29.91 in 10.0 mi WNW 9.2 mph - N/A   Overcast
9:55 PM 41.0 °F 37.1 °F 33.8 °F 76% 29.93 in 10.0 mi West 5.8 mph - N/A   Overcast
10:15 PM 41.0 °F 36.4 °F 33.8 °F 76% 29.93 in 10.0 mi West 6.9 mph - N/A   Overcast
10:35 PM 41.0 °F 36.4 °F 32.0 °F 70% 29.93 in 10.0 mi West 6.9 mph - N/A   Overcast
10:55 PM 41.0 °F 37.1 °F 32.0 °F 70% 29.94 in 10.0 mi West 5.8 mph - N/A   Overcast
11:15 PM 41.0 °F 35.8 °F 32.0 °F 70% 29.94 in 10.0 mi West 8.1 mph - N/A   Overcast
11:35 PM 41.0 °F 34.7 °F 32.0 °F 70% 29.95 in 10.0 mi West 10.4 mph 17.3 mph N/A   Overcast
11:55 PM 41.0 °F 37.1 °F 32.0 °F 70% 29.94 in 10.0 mi West 5.8 mph - N/A   Overcast